This is the latest recevied weather packets stored in our database for station/object XE1GMR. If no packets are shown the sender has not sent any weather packets the latest 10 day(s).
| Time | Temp. | Humidity | Pressure | Rain* | Wind** | Luminosity | Snow |
|---|---|---|---|---|---|---|---|
| 1777673007 | 30° C | 32% | 1116.2 hPa | 0 mm | - | 507 W/m² | - |
| 1777672703 | 30° C | 33% | 1116.1 hPa | 0 mm | - | 512 W/m² | - |
| 1777672399 | 29.44° C | 32% | 1115.9 hPa | 0 mm | - | 487 W/m² | - |
| 1777672095 | 28.33° C | 34% | 1116.3 hPa | 0 mm | - | 540 W/m² | - |
| 1777671790 | 27.78° C | 35% | 1116.3 hPa | 0 mm | - | 479 W/m² | - |
| 1777671487 | 27.78° C | 36% | 1116.4 hPa | 0 mm | - | 204 W/m² | - |
| 1777671183 | 27.78° C | 36% | 1116.4 hPa | 0 mm | - | 197 W/m² | - |
| 1777670879 | 28.33° C | 36% | 1116.6 hPa | 0 mm | - | 186 W/m² | - |
| 1777670576 | 28.33° C | 36% | 1116.4 hPa | 0 mm | - | 170 W/m² | - |
| 1777670273 | 28.33° C | 36% | 1116.6 hPa | 0 mm | - | 165 W/m² | - |
| 1777669970 | 28.89° C | 35% | 1116.5 hPa | 0 mm | - | 131 W/m² | - |
| 1777669667 | 30° C | 34% | 1116.3 hPa | 0 mm | - | 218 W/m² | - |
| 1777669364 | 29.44° C | 33% | 1116.6 hPa | 0 mm | - | 581 W/m² | - |
| 1777669060 | 28.89° C | 35% | 1116.6 hPa | 0 mm | - | 559 W/m² | - |
| 1777668757 | 29.44° C | 34% | 1116.6 hPa | 0 mm | - | 589 W/m² | - |
| 1777668454 | 29.44° C | 35% | 1116.7 hPa | 0 mm | - | 616 W/m² | - |
| 1777668151 | 29.44° C | 35% | 1116.7 hPa | 0 mm | - | 619 W/m² | - |
| 1777667847 | 29.44° C | 35% | 1116.9 hPa | 0 mm | - | 607 W/m² | - |
| 1777667545 | 29.44° C | 35% | 1116.8 hPa | 0 mm | - | 628 W/m² | - |
| 1777667241 | 28.89° C | 35% | 1117 hPa | 0 mm | - | 638 W/m² | - |
| 1777666938 | 30° C | 34% | 1116.9 hPa | 0 mm | - | 656 W/m² | - |
| 1777666635 | 28.89° C | 36% | 1117 hPa | 0 mm | - | 654 W/m² | - |
| 1777666332 | 28.89° C | 35% | 1117.2 hPa | 0 mm | - | 682 W/m² | - |
| 1777666029 | 28.89° C | 36% | 1117.3 hPa | 0 mm | - | 691 W/m² | - |
| 1777665726 | 29.44° C | 37% | 1117.4 hPa | 0 mm | - | 699 W/m² | - |
* Rain latest hour (hover to see other rain measurements)
** Current wind speed in m/s (hover to see current wind gust speed)